Temp
-1 -1 -1 -2 -3 -3 -3 -3 -3 -3 -3 -2 -2 -2 -2 -1 -2 -3 -3 -2 -2 -1 1 2 4 8 12 13 14 14 14 14 15 14 14 13 15 15 14 13 14 14 13
-1 -2 -2 -3 -3 -3 -3 -3 -3 -3 -3 -3 -3 -3 -2 -2 -3 -4 -4 -4 -3 -2 -1 1 2 4 12 13 14 14 14 14 14 14 13 13 13 14 14 13 13 13 13
-2 -3 -3 -4 -4 -4 -4 -4 -4 -4 -4 -4 -4 -3 -3 -4 -3 -4 -4 -4 -4 -3 -2 -1 0 0 5 11 13 13 13 13 13 14 13 14 14 13 13 13 13 14 14
-3 -3 -4 -4 -4 -4 -4 -4 -4 -4 -4 -4 -4 -4 -4 -5 -4 -5 -5 -5 -5 -4 -4 -2 -1 -2 -1 -1 6 11 13 13 13 13 13 12 12 12 13 12 12 13 13
-4 -4 -5 -5 -5 -4 -4 -4 -5 -5 -4 -5 -5 -5 -5 -5 -5 -5 -5 -5 -5 -5 -5 -4 -2 -3 -3 -2 -1 1 5 11 12 13 12 10 11 11 11 12 12 12 12
-5 -5 -5 -6 -5 -5 -5 -5 -5 -5 -5 -5 -5 -5 -6 -6 -5 -5 -5 -5 -5 -5 -5 -5 -4 -4 -3 -3 -2 -1 -0 2 6 10 10 8 10 11 11 12 12 11 8
-6 -6 -6 -6 -6 -6 -5 -6 -6 -6 -6 -5 -6 -6 -6 -6 -6 -5 -5 -6 -6 -6 -5 -5 -5 -5 -4 -3 -2 -1 -1 -0 0 2 5 5 5 5 7 9 10 10 11
-6 -6 -6 -6 -6 -6 -6 -6 -6 -6 -6 -6 -6 -6 -7 -7 -6 -6 -5 -6 -6 -6 -5 -5 -5 -5 -4 -3 -2 -2 -2 -2 -1 -1 -0 1 2 2 3 3 5 6 8
-7 -7 -7 -7 -7 -7 -7 -7 -7 -7 -7 -6 -6 -6 -7 -8 -7 -6 -6 -6 -6 -6 -6 -5 -5 -5 -5 -3 -3 -3 -3 -3 -2 -2 -0 0 1 1 2 2 4 5 4
-7 -7 -7 -7 -7 -7 -7 -7 -7 -7 -7 -7 -6 -7 -7 -8 -8 -6 -6 -7 -7 -7 -7 -6 -6 -5 -5 -5 -5 -5 -4 -5 -4 -3 -2 -2 -1 1 1 2 2 3 5
-8 -7 -7 -7 -7 -7 -7 -8 -8 -8 -7 -7 -7 -8 -8 -8 -8 -7 -7 -7 -8 -8 -8 -7 -7 -6 -6 -6 -6 -6 -6 -6 -5 -5 -4 -3 -3 -2 -0 1 1 1 2
-8 -8 -8 -8 -8 -8 -8 -8 -8 -8 -8 -7 -8 -8 -9 -9 -8 -8 -8 -8 -8 -9 -9 -9 -9 -7 -7 -7 -7 -7 -7 -7 -7 -7 -6 -5 -5 -5 -4 -2 -1 0 1
-9 -8 -8 -8 -8 -8 -8 -9 -9 -9 -8 -8 -9 -9 -9 -9 -9 -8 -9 -9 -9 -10 -10 -10 -10 -9 -9 -9 -8 -8 -8 -8 -8 -7 -7 -7 -7 -6 -5 -4 -3 -1 1
-9 -9 -8 -8 -9 -8 -8 -8 -8 -9 -9 -8 -9 -9 -9 -9 -9 -9 -9 -10 -10 -11 -11 -11 -11 -11 -11 -10 -10 -9 -9 -9 -8 -8 -8 -8 -7 -7 -6 -6 -5 -3 -1
-9 -9 -9 -9 -9 -9 -9 -8 -9 -8 -8 -8 -9 -9 -10 -9 -9 -9 -9 -10 -10 -11 -12 -12 -13 -13 -12 -12 -12 -11 -11 -10 -9 -9 -9 -8 -8 -7 -7 -7 -6 -5 -2
-10 -10 -10 -10 -10 -10 -10 -9 -8 -9 -9 -9 -9 -9 -10 -10 -9 -10 -10 -11 -11 -12 -13 -14 -14 -14 -14 -13 -13 -13 -12 -12 -11 -11 -10 -10 -9 -8 -8 -7 -6 -6 -4
-10 -10 -10 -10 -11 -12 -11 -11 -11 -9 -9 -10 -11 -11 -11 -11 -11 -11 -12 -13 -13 -13 -15 -15 -15 -15 -15 -14 -14 -14 -13 -13 -12 -12 -11 -10 -9 -9 -8 -7 -7 -6 -5
-10 -10 -11 -11 -11 -11 -11 -11 -11 -11 -12 -11 -11 -12 -13 -12 -12 -13 -13 -13 -15 -15 -16 -16 -16 -16 -16 -15 -15 -15 -14 -14 -13 -13 -12 -11 -11 -10 -9 -8 -7 -7 -6
-11 -11 -11 -11 -11 -11 -11 -11 -12 -12 -12 -12 -13 -13 -13 -13 -14 -14 -15 -16 -17 -17 -17 -17 -17 -17 -16 -16 -16 -16 -15 -15 -14 -14 -13 -12 -12 -11 -10 -9 -8 -8 -7
-11 -12 -12 -12 -12 -12 -12 -13 -13 -12 -13 -13 -14 -15 -15 -14 -15 -15 -15 -16 -16 -17 -17 -17 -17 -16 -16 -16 -16 -16 -16 -15 -15 -14 -13 -13 -12 -12 -11 -10 -9 -8 -7
-12 -12 -12 -12 -13 -13 -13 -13 -13 -14 -14 -14 -14 -15 -15 -16 -16 -16 -16 -16 -16 -17 -17 -17 -16 -16 -16 -16 -16 -16 -16 -15 -15 -14 -14 -13 -13 -12 -11 -10 -9 -9 -8
-12 -12 -13 -13 -13 -14 -14 -14 -14 -14 -15 -15 -15 -15 -16 -16 -16 -16 -16 -16 -16 -16 -17 -16 -16 -16 -16 -16 -16 -16 -16 -16 -15 -14 -14 -13 -12 -12 -11 -10 -9 -9 -8
-13 -13 -13 -14 -14 -14 -14 -14 -15 -15 -15 -15 -16 -16 -16 -17 -17 -17 -17 -17 -17 -16 -16 -16 -16 -16 -16 -15 -15 -15 -16 -15 -15 -14 -14 -13 -12 -11 -11 -10 -10 -9 -8
-13 -13 -14 -14 -14 -14 -15 -15 -15 -15 -16 -16 -16 -17 -17 -17 -17 -17 -17 -17 -17 -17 -17 -17 -17 -17 -16 -15 -15 -14 -14 -13 -13 -12 -12 -12 -12 -11 -11 -10 -9 -8 -7
-13 -14 -14 -14 -15 -15 -15 -15 -15 -16 -16 -16 -16 -17 -17 -17 -17 -17 -17 -17 -17 -17 -17 -17 -17 -17 -16 -15 -15 -15 -14 -13 -12 -12 -12 -12 -11 -11 -10 -10 -9 -8 -7
-14 -14 -14 -15 -15 -15 -15 -15 -15 -16 -16 -16 -17 -17 -17 -17 -18 -18 -18 -18 -17 -17 -17 -17 -17 -16 -16 -15 -15 -15 -14 -13 -13 -12 -12 -12 -12 -11 -11 -10 -9 -8 -8
Height
822 817 812 807 802 798 793 789 784 778 773 768 763 757 751 746 741 734 726 717 708 699 689 678 664 653 647 646 642 645 646 653 655 662 666 672 677 681 686 687 690 696 699
820 815 810 806 801 796 792 787 782 776 772 767 761 756 749 744 739 732 724 715 706 696 685 673 658 644 633 634 633 634 636 642 649 657 662 668 671 673 677 681 685 687 689
817 812 808 804 799 794 791 786 781 775 770 765 760 754 749 743 737 730 723 714 703 695 685 674 659 647 631 626 622 627 630 636 642 648 653 659 662 666 672 674 677 679 682
816 811 807 803 799 794 790 785 780 775 769 764 759 754 748 742 735 728 720 711 702 693 684 675 662 656 640 630 617 620 624 628 633 639 645 651 655 660 665 669 672 672 675
817 812 807 804 799 794 790 786 780 775 770 764 758 753 747 741 734 727 719 710 700 692 684 676 666 663 645 639 629 620 622 624 629 633 640 644 649 652 656 662 663 664 668
816 813 808 805 799 794 790 785 780 774 770 765 758 752 746 741 735 728 720 711 702 693 685 678 671 656 648 640 639 628 632 626 630 630 634 638 643 646 649 654 654 659 665
816 813 809 805 800 794 790 786 781 775 770 765 759 753 746 741 734 728 720 713 704 696 688 680 672 662 651 644 639 631 636 635 638 636 636 635 640 641 646 647 648 651 655
817 814 810 805 799 795 791 785 781 776 771 765 759 754 747 741 734 727 719 712 705 698 690 683 675 665 658 652 642 641 643 645 641 646 638 633 637 641 645 649 648 652 654
818 815 810 805 800 795 791 786 781 776 771 766 760 755 748 741 735 727 718 710 704 698 692 685 676 673 666 659 648 649 649 641 640 642 632 636 638 640 644 646 649 652 651
818 814 810 805 801 796 791 786 782 777 772 767 761 757 750 743 735 728 720 711 704 698 691 688 685 678 672 662 658 653 643 659 656 643 635 642 638 641 643 645 650 651 649
818 814 810 806 801 797 792 786 782 777 772 767 763 757 751 745 738 731 723 715 707 699 694 688 683 679 674 667 666 662 661 652 650 649 652 644 640 641 640 645 649 649 647
817 814 810 806 801 796 791 787 783 778 773 767 763 757 752 747 741 734 727 721 714 707 699 695 690 682 674 669 663 663 664 651 657 655 651 644 642 642 642 647 646 645 644
817 814 810 806 801 797 792 788 783 778 773 769 764 759 753 748 743 738 731 724 717 711 707 701 691 685 680 678 679 675 668 667 660 656 651 651 650 647 647 646 645 641 639
817 813 810 805 801 796 792 788 783 779 774 770 765 760 755 749 743 738 732 727 720 712 706 700 695 690 689 689 681 674 671 663 657 656 656 654 651 649 648 648 643 640 637
817 813 809 804 800 796 792 788 784 781 777 772 768 763 758 752 747 742 735 729 723 717 709 702 697 694 693 686 679 675 671 668 667 662 660 655 651 653 650 648 644 641 638
816 812 808 804 800 796 792 787 785 782 778 775 772 767 762 758 751 745 739 733 728 720 714 710 706 702 697 690 685 681 677 671 666 662 658 656 654 651 649 646 643 641 639
817 813 809 804 800 796 793 789 784 780 779 775 772 768 764 759 753 748 742 736 732 725 721 717 713 706 699 693 689 684 678 674 670 667 664 662 661 660 652 646 644 642 640
817 813 809 805 802 798 794 790 786 783 778 775 772 769 763 759 754 749 743 736 730 727 726 723 719 712 706 701 697 692 687 681 677 674 672 668 666 658 651 649 646 643 639
816 813 809 805 802 799 795 791 788 784 781 777 772 768 764 760 755 749 745 740 736 732 728 724 720 716 711 706 702 697 690 685 682 678 674 668 662 657 652 649 645 639 636
816 813 809 805 802 799 795 792 788 785 782 779 775 772 766 761 755 751 746 743 739 736 732 727 722 718 714 710 705 699 694 690 684 678 671 665 660 656 650 645 640 636 632
815 812 809 806 803 800 797 793 790 787 784 780 777 773 769 765 760 755 751 746 742 738 734 730 725 719 714 709 703 698 691 686 681 675 669 663 658 652 647 642 638 633 629
815 812 809 806 804 801 798 795 791 788 785 781 777 773 769 765 761 757 753 748 744 740 735 731 726 722 717 711 705 699 693 688 682 674 667 661 656 651 645 639 634 630 626
814 811 809 806 804 802 798 795 792 789 786 783 778 774 769 765 762 758 754 750 745 740 735 730 725 720 716 711 706 700 694 688 681 675 669 663 658 651 644 640 634 629 625
814 811 809 806 804 802 799 795 792 789 787 783 779 774 770 766 762 759 755 751 746 741 737 732 727 721 715 710 704 698 692 685 679 672 667 661 656 650 644 638 632 626 623
814 811 809 806 804 801 799 795 792 790 786 783 779 775 771 767 763 758 754 751 746 742 737 733 728 722 717 711 705 698 692 686 679 672 666 660 655 648 643 637 632 626 623
813 811 809 807 804 801 798 795 792 789 786 783 779 775 771 767 762 758 754 750 746 741 737 732 727 722 716 710 705 699 693 686 680 674 667 661 655 648 643 638 633 628 624
Wind_Speed
20 26 29 28 27 27 26 27 25 29 28 28 31 29 30 25 27 30 34 32 34 34 33 35 37 38 37 38 33 34 30 27 10 9 27 37 31 33 34 36 39 41 42
22 26 26 26 26 26 26 25 29 28 28 27 30 29 29 26 28 30 34 35 33 35 34 35 35 36 35 38 31 31 29 30 21 11 22 22 27 31 31 29 32 35 36
25 28 27 26 26 27 27 28 29 28 28 28 27 26 30 31 28 32 32 34 33 33 34 31 33 33 22 25 29 26 25 24 24 16 11 21 23 19 23 25 27 32 31
26 28 26 25 25 25 27 28 28 27 26 27 27 24 26 29 26 34 35 34 31 32 34 33 27 31 32 28 7 11 21 21 19 16 12 12 12 20 24 21 19 26 27
25 24 24 24 24 23 25 26 28 26 25 26 25 25 28 26 26 34 35 32 31 31 31 32 26 25 28 27 19 17 5 9 15 14 10 7 11 9 17 20 19 21 28
24 22 22 23 24 22 25 26 27 28 26 26 25 24 27 25 28 31 34 31 29 29 29 29 31 32 33 28 21 21 18 10 5 7 6 4 8 10 14 23 17 8 3
21 21 21 22 23 23 22 24 26 26 27 25 25 25 27 25 28 31 33 28 26 27 28 29 27 29 33 30 24 22 17 16 13 7 3 7 6 5 2 4 8 8 8
18 20 22 23 23 23 23 24 24 25 26 24 24 24 26 26 28 31 34 27 24 26 26 28 27 32 33 26 23 22 18 17 17 10 5 4 2 3 3 4 2 6 9
17 19 22 22 22 22 23 25 23 23 25 24 23 24 26 27 28 32 34 28 26 26 25 27 29 28 30 27 24 19 14 21 23 15 11 7 3 2 3 8 8 6 2
19 20 22 22 22 21 24 25 23 23 21 23 19 24 24 26 29 32 34 29 28 27 25 25 23 28 27 27 23 22 22 14 18 22 17 10 9 6 4 3 8 8 4
19 19 21 22 20 20 24 22 22 23 22 22 18 23 23 25 28 30 32 29 29 28 24 26 29 28 26 27 25 24 18 19 18 15 13 13 12 9 5 5 5 5 6
18 20 20 22 20 21 23 18 19 21 20 22 20 23 24 24 26 29 30 29 27 25 25 24 25 24 25 25 28 24 19 23 16 15 15 17 17 17 16 14 11 8 9
17 20 20 22 21 21 23 19 19 21 19 20 19 22 24 25 25 27 27 28 28 24 21 21 24 23 23 22 19 18 20 18 17 17 17 16 17 17 17 14 12 10 10
19 20 21 23 23 21 24 24 21 22 22 18 19 21 23 24 25 28 27 27 28 26 26 26 26 25 22 18 21 23 21 23 22 19 17 17 17 17 14 15 14 15 12
18 20 22 23 24 22 24 24 18 19 19 21 21 22 23 23 27 27 28 26 27 25 24 25 26 27 24 26 27 25 23 23 21 21 19 18 18 17 14 15 11 15 7
18 21 23 23 24 23 24 26 17 16 17 17 20 22 25 22 24 25 25 21 22 22 23 22 22 22 21 23 24 24 23 24 25 24 22 21 20 21 20 18 13 11 11
17 19 22 23 24 21 22 22 19 21 18 18 20 21 23 24 23 23 24 18 19 24 21 21 21 23 25 25 25 24 24 26 26 23 21 19 18 17 17 17 15 13 12
16 18 19 20 21 22 23 22 20 22 22 24 24 23 26 25 23 22 23 24 28 27 21 18 19 22 23 22 23 24 26 26 24 22 20 19 18 17 17 16 16 15 14
17 19 18 18 19 20 21 21 21 19 21 23 26 28 30 27 22 23 24 28 22 22 24 23 23 23 24 24 24 24 24 24 24 23 22 21 20 18 17 16 17 17 16
15 17 17 18 19 21 20 22 21 19 21 23 25 24 27 29 29 29 28 28 26 25 26 26 27 26 26 25 25 25 23 22 23 23 24 23 22 20 18 19 17 16 16
15 17 16 16 18 19 19 20 21 19 19 22 25 25 23 22 24 24 25 26 26 26 26 26 26 27 28 29 29 29 28 28 26 26 26 26 25 24 23 20 19 18 17
14 15 15 16 16 18 18 18 20 19 20 23 26 27 25 23 22 22 24 25 25 25 24 24 25 26 27 28 28 29 28 27 29 30 30 30 28 26 23 22 20 18 17
14 15 14 14 15 16 18 18 18 19 19 23 24 26 26 25 23 22 23 24 26 25 25 25 26 27 28 28 27 27 28 29 29 27 27 27 27 26 25 22 20 18 16
13 15 14 14 14 15 17 18 18 17 19 22 24 24 24 24 24 24 25 25 26 26 26 26 26 27 27 28 29 29 30 29 28 27 26 25 25 25 23 21 21 21 17
12 13 14 14 15 14 15 16 17 18 18 20 22 24 24 24 26 27 26 25 26 26 27 27 27 27 26 27 28 29 29 27 26 25 24 23 23 22 22 20 20 17 12
12 13 13 14 14 15 16 17 18 17 17 19 21 22 22 24 26 26 26 26 26 26 27 28 28 27 26 27 29 29 29 28 27 24 23 23 22 22 21 19 18 14 11
Wind_Direction
354 353 355 355 356 355 351 347 341 339 339 336 338 335 334 336 338 338 335 328 326 318 313 316 306 281 252 243 217 207 202 203 215 188 205 210 213 225 232 234 234 235 240
351 353 356 357 356 355 351 348 348 346 341 336 338 339 341 342 341 342 338 332 330 325 320 329 330 325 253 235 214 206 199 201 206 199 188 197 209 221 225 220 225 230 231
352 355 356 357 356 354 347 346 347 343 340 342 339 341 341 338 335 344 338 333 331 329 330 329 344 345 340 242 213 209 202 197 201 191 182 207 213 222 218 222 225 219 222
351 354 354 353 353 354 348 346 342 342 340 340 342 340 341 342 340 344 338 337 335 336 339 334 354 351 2 354 30 189 196 188 181 187 187 201 207 213 218 209 212 219 226
351 352 353 350 353 353 349 345 343 343 342 341 338 340 343 343 341 341 340 339 338 338 341 346 343 349 4 6 12 25 40 184 196 193 193 159 182 186 202 210 207 216 226
354 350 350 348 352 350 349 346 344 346 343 343 342 340 343 341 342 342 343 341 341 340 340 343 350 353 357 6 11 41 36 36 351 164 163 158 187 200 190 210 205 171 218
356 348 345 346 348 350 349 347 345 343 344 339 343 343 341 341 344 343 345 342 338 340 346 342 345 349 358 357 16 35 30 40 39 4 126 114 100 66 132 195 199 190 203
349 344 347 347 347 348 347 346 344 342 339 336 338 343 343 343 347 345 347 344 342 344 348 352 348 351 357 355 22 26 28 18 17 353 20 66 119 280 304 279 255 265 263
347 342 344 347 345 346 345 344 343 340 338 338 338 346 346 344 349 350 351 348 347 348 350 354 3 4 0 12 28 21 13 15 2 342 23 17 27 356 315 284 275 231 266
344 341 343 350 349 345 345 347 342 345 340 340 344 350 349 347 352 355 355 352 349 350 351 354 359 5 5 12 24 17 17 353 335 352 8 5 31 35 42 329 282 257 235
344 344 350 355 352 344 350 348 343 344 344 342 353 350 352 355 352 356 358 358 353 347 349 352 352 359 7 12 17 20 7 6 4 3 353 21 30 24 25 341 299 280 255
352 346 352 355 353 351 355 346 346 344 345 345 354 352 353 353 358 358 358 358 356 354 347 347 352 0 5 9 10 9 8 21 10 7 9 17 9 0 352 331 314 295 272
350 351 356 355 357 358 358 350 347 350 346 348 356 352 349 349 353 360 1 359 358 359 354 352 360 10 10 8 8 9 15 11 15 15 12 360 352 346 338 338 326 323 296
353 357 357 357 355 360 1 358 355 354 348 351 355 353 348 347 353 360 1 1 359 2 9 11 17 16 13 7 6 9 9 13 9 5 357 350 351 352 346 344 338 346 335
356 359 358 358 357 355 356 357 354 358 357 356 357 356 352 349 354 356 359 1 3 1 7 11 12 9 1 2 4 8 9 7 1 358 353 355 356 348 346 340 340 336 322
360 360 360 357 357 357 355 354 6 4 3 3 2 1 356 352 353 357 1 4 9 9 18 9 1 360 0 360 356 354 358 359 358 354 353 352 345 341 340 339 343 336 322
5 2 1 360 359 355 349 351 342 1 8 9 6 4 2 356 357 360 1 8 16 20 19 6 360 357 353 353 354 354 349 348 351 350 345 342 339 329 336 337 338 333 320
7 6 4 1 2 0 359 1 359 5 7 6 7 6 3 1 2 5 6 14 16 19 13 6 358 354 351 349 348 345 344 346 346 343 338 334 330 330 330 329 328 322 317
9 7 5 5 6 4 4 4 4 3 9 10 6 3 5 4 6 12 15 21 8 3 2 359 359 357 353 349 346 344 345 340 339 335 333 332 332 331 322 316 313 312 309
10 8 8 10 11 9 9 8 3 1 6 9 9 2 -0 3 9 9 13 13 9 4 1 359 360 0 358 353 350 346 340 339 338 336 334 331 329 326 318 316 314 307 300
5 7 9 12 15 12 11 8 7 4 3 360 1 4 2 4 6 8 6 7 7 5 2 1 2 3 2 359 356 353 347 341 339 337 334 332 329 324 325 318 312 307 298
7 10 13 15 13 13 12 11 11 9 3 3 358 360 3 6 1 359 360 2 4 5 4 2 2 4 3 360 358 356 345 339 338 339 336 336 331 327 325 322 318 313 307
8 9 11 12 11 10 12 11 9 9 3 1 359 360 4 3 1 357 356 358 1 4 5 5 3 3 3 2 2 1 351 342 343 344 337 334 331 329 330 322 321 317 315
6 8 8 6 7 6 7 8 8 5 4 3 2 2 3 4 4 5 5 6 5 6 7 5 5 2 0 1 3 3 359 356 353 351 349 345 339 340 340 335 337 336 330
360 3 1 0 1 0 1 4 3 4 360 360 1 1 2 2 3 1 0 3 3 4 5 6 5 2 2 3 5 4 0 360 360 358 355 354 351 353 353 348 347 346 347
355 356 356 353 352 354 352 353 351 352 356 356 354 355 355 355 356 356 359 359 358 1 3 5 5 4 4 6 7 5 4 4 3 3 4 3 2 1 359 360 360 359 357